Coldwater, MI

7:06 PM EDT on May 22, 2017 (GMT -0400)
Branch County Memorial

Weather History for KOEB - November, 2011

Change the Weather History Date:

Monday, November 7, 2011

  Actual Average (KJYM) Record (KJYM)
Temperature  
Mean Temperature 53 °F -  
Max Temperature 55 °F 48 °F 74 °F (1975)
Min Temperature 51 °F 30 °F 17 °F (1991)
Degree Days  
Heating Degree Days 12    
Growing Degree Days 3 (Base 50)    
Moisture  
Dew Point 46 °F    
Average Humidity 78    
Maximum Humidity 100    
Minimum Humidity 58    
Precipitation  
Precipitation 0.00 in - - ()
Sea Level Pressure  
Sea Level Pressure 30.20 in    
Wind  
Wind Speed 8 mph (SW)    
Max Wind Speed 14 mph    
Max Gust Speed 20 mph    
Visibility 7 miles    
Events Rain    
Averages and records for this station are not official NWS values.
T = Trace of Precipitation, MM = Missing Value Source: NWS Daily Summary

Daily Weather History Graph

Daily Weather History Graph

Search for Another Location

Airport or City:

Trip Planner

Search our weather history database for the weather conditions in past years. The results will help you decide how hot, cold, wet, or windy it might be!

Date:

Astronomy

Nov. 07, 2011 Rise Set
Actual Time 7:19 AM EST 5:27 PM EST
Civil Twilight 6:50 AM EST 5:56 PM EST
Nautical Twilight 6:17 AM EST 6:30 PM EST
Astronomical Twilight 5:44 AM EST 7:02 PM EST
Moon 3:39 PM EST (11/7) 4:19 AM EST (11/7)
Length of Visible Light 11h 06m
Length of Day
10h 07m
Waxing Gibbous, 91% of the Moon is Illuminated
Nov 7
Waxing Gibbous
Nov 10
Full
Nov 18
Last Quarter
Nov 25
New
Dec 2
First Quarter

Hourly Weather History & Observations

Time (EST) Temp. Dew Point Humidity Pressure Visibility Wind Dir Wind Speed Gust Speed Precip Events Conditions
12:15 AM 55.4 °F 41.0 °F 58% 30.15 in 10.0 mi SW 12.7 mph 19.6 mph N/A   Overcast
12:34 AM 55.4 °F 41.0 °F 58% 30.15 in 10.0 mi SW 12.7 mph 18.4 mph N/A   Overcast
12:54 AM 55.4 °F 41.0 °F 58% 30.15 in 10.0 mi SW 12.7 mph 18.4 mph N/A   Overcast
1:15 AM 55.4 °F 41.0 °F 58% 30.16 in 10.0 mi SW 11.5 mph 19.6 mph N/A   Overcast
1:34 AM 55.4 °F 41.0 °F 58% 30.16 in 10.0 mi SW 11.5 mph - N/A   Overcast
1:54 AM 55.4 °F 41.0 °F 58% 30.16 in 10.0 mi SW 11.5 mph - N/A   Overcast
2:15 AM 55.4 °F 41.0 °F 58% 30.16 in 10.0 mi SW 9.2 mph - N/A   Overcast
2:34 AM 53.6 °F 41.0 °F 62% 30.17 in 10.0 mi SW 10.4 mph 16.1 mph N/A   Overcast
2:55 AM 53.6 °F 41.0 °F 62% 30.17 in 10.0 mi SW 8.1 mph - N/A   Overcast
3:15 AM 53.6 °F 41.0 °F 62% 30.17 in 10.0 mi SSW 9.2 mph - N/A   Overcast
3:34 AM 53.6 °F 41.0 °F 62% 30.16 in 10.0 mi SSW 9.2 mph - N/A   Overcast
3:55 AM 53.6 °F 41.0 °F 62% 30.17 in 10.0 mi SW 10.4 mph - N/A   Overcast
4:14 AM 53.6 °F 41.0 °F 62% 30.17 in 10.0 mi SSW 8.1 mph - N/A   Overcast
4:34 AM 53.6 °F 41.0 °F 62% 30.17 in 10.0 mi SW 9.2 mph - N/A   Overcast
4:55 AM 53.6 °F 41.0 °F 62% 30.18 in 10.0 mi SW 9.2 mph - N/A   Overcast
5:14 AM 53.6 °F 41.0 °F 62% 30.18 in 10.0 mi SW 8.1 mph - N/A   Overcast
5:34 AM 53.6 °F 41.0 °F 62% 30.18 in 10.0 mi SW 5.8 mph - N/A   Overcast
5:55 AM 53.6 °F 41.0 °F 62% 30.18 in 10.0 mi SW 6.9 mph - N/A   Overcast
6:14 AM 53.6 °F 42.8 °F 67% 30.19 in 10.0 mi SW 6.9 mph - N/A   Overcast
6:34 AM 53.6 °F 42.8 °F 67% 30.19 in 10.0 mi SW 4.6 mph - N/A Rain Light Rain
6:55 AM 53.6 °F 42.8 °F 67% 30.20 in 10.0 mi SW 5.8 mph - N/A   Overcast
7:14 AM 53.6 °F 42.8 °F 67% 30.20 in 10.0 mi WSW 6.9 mph - N/A   Overcast
7:34 AM 53.6 °F 42.8 °F 67% 30.20 in 10.0 mi SW 6.9 mph - N/A   Light Drizzle
7:55 AM 53.6 °F 44.6 °F 72% 30.21 in 10.0 mi SW 11.5 mph - N/A   Light Drizzle
8:14 AM 53.6 °F 44.6 °F 72% 30.21 in 10.0 mi SW 9.2 mph - N/A   Drizzle
8:35 AM 51.8 °F 46.4 °F 82% 30.22 in 10.0 mi SW 11.5 mph - N/A   Light Drizzle
8:55 AM 53.6 °F 46.4 °F 77% 30.22 in 10.0 mi SW 11.5 mph 16.1 mph N/A   Overcast
9:14 AM 53.6 °F 46.4 °F 77% 30.22 in 10.0 mi SW 11.5 mph - N/A   Overcast
9:35 AM 53.6 °F 46.4 °F 77% 30.23 in 10.0 mi WSW 10.4 mph - N/A   Overcast
9:55 AM 53.6 °F 46.4 °F 77% 30.23 in 10.0 mi SW 10.4 mph 17.3 mph N/A   Overcast
10:14 AM 53.6 °F 48.2 °F 82% 30.24 in 10.0 mi WSW 12.7 mph 17.3 mph N/A   Overcast
10:35 AM 53.6 °F 48.2 °F 82% 30.23 in 10.0 mi SW 13.8 mph - N/A   Overcast
10:54 AM 53.6 °F 48.2 °F 82% 30.24 in 10.0 mi WSW 9.2 mph 17.3 mph N/A   Overcast
11:14 AM 53.6 °F 50.0 °F 88% 30.24 in 7.0 mi SW 10.4 mph - N/A   Overcast
11:35 AM 53.6 °F 50.0 °F 88% 30.24 in 10.0 mi WSW 9.2 mph - N/A   Overcast
11:54 AM 53.6 °F 50.0 °F 88% 30.23 in 7.0 mi SW 6.9 mph - N/A   Overcast
12:14 PM 53.6 °F 50.0 °F 88% 30.22 in 7.0 mi WSW 5.8 mph - N/A   Overcast
12:35 PM 55.4 °F 50.0 °F 82% 30.21 in 7.0 mi WSW 6.9 mph - N/A   Overcast
12:54 PM 55.4 °F 50.0 °F 82% 30.21 in 7.0 mi WSW 5.8 mph - N/A   Overcast
1:14 PM 55.4 °F 50.0 °F 82% 30.21 in 7.0 mi WSW 8.1 mph - N/A   Overcast
1:34 PM 53.6 °F 50.0 °F 88% 30.21 in 7.0 mi West 5.8 mph - N/A   Overcast
1:54 PM 55.4 °F 50.0 °F 82% 30.20 in 7.0 mi WSW 4.6 mph - N/A   Overcast
2:15 PM 53.6 °F 50.0 °F 88% 30.20 in 7.0 mi SW 5.8 mph - N/A   Overcast
2:34 PM 53.6 °F 50.0 °F 88% 30.20 in 7.0 mi WSW 4.6 mph - N/A   Overcast
2:54 PM 53.6 °F 50.0 °F 88% 30.20 in 7.0 mi West 3.5 mph - N/A   Overcast
3:15 PM 53.6 °F 50.0 °F 88% 30.19 in 5.0 mi WSW 3.5 mph - N/A Rain Light Rain
3:34 PM 53.6 °F 50.0 °F 88% 30.19 in 5.0 mi Calm Calm - N/A Rain Rain
3:54 PM 53.6 °F 50.0 °F 88% 30.20 in 4.0 mi SW 4.6 mph - N/A Rain Light Rain
4:14 PM 53.6 °F 50.0 °F 88% 30.20 in 3.0 mi Calm Calm - N/A Rain Rain
4:34 PM 53.6 °F 50.0 °F 88% 30.20 in 3.0 mi Calm Calm - N/A Rain Light Rain
4:55 PM 51.8 °F 50.0 °F 94% 30.19 in 2.5 mi Calm Calm - N/A   Drizzle
5:15 PM 51.8 °F 51.8 °F 100% 30.19 in 2.5 mi Calm Calm - N/A Rain Light Rain
5:34 PM 51.8 °F 51.8 °F 100% 30.19 in 2.5 mi Calm Calm - N/A   Drizzle
5:55 PM 51.8 °F 50.0 °F 94% 30.20 in 3.0 mi South 3.5 mph - N/A   Drizzle
6:14 PM 51.8 °F 51.8 °F 100% 30.21 in 3.0 mi Calm Calm - N/A Rain Light Rain
6:55 PM 51.8 °F 50.0 °F 94% 30.21 in 3.0 mi Calm Calm - N/A   Overcast
7:14 PM 51.8 °F 50.0 °F 94% 30.21 in 2.5 mi Calm Calm - N/A   Overcast
7:34 PM 51.8 °F 50.0 °F 94% 30.21 in 2.5 mi Calm Calm - N/A   Overcast
7:55 PM 51.8 °F 50.0 °F 94% 30.21 in 2.5 mi Calm Calm - N/A   Overcast
8:14 PM 51.8 °F 50.0 °F 94% 30.21 in 1.8 mi Calm Calm - N/A   Overcast
8:34 PM 51.8 °F 50.0 °F 94% 30.21 in 1.8 mi Calm Calm - N/A   Overcast
9:14 PM 51.8 °F 50.0 °F 94% 30.21 in 1.5 mi Calm Calm - N/A   Overcast
9:34 PM 51.8 °F 50.0 °F 94% 30.21 in 1.0 mi Calm Calm - N/A   Heavy Drizzle
9:55 PM 51.8 °F 50.0 °F 94% 30.21 in 1.2 mi Calm Calm - N/A Rain Rain
10:14 PM 51.8 °F 50.0 °F 94% 30.21 in 0.8 mi Calm Calm - N/A   Heavy Drizzle
10:54 PM 51.8 °F 50.0 °F 94% 30.20 in 1.0 mi Calm Calm - N/A   Heavy Drizzle
11:14 PM 51.8 °F 50.0 °F 94% 30.20 in 1.2 mi Calm Calm - N/A   Light Drizzle
11:35 PM 51.8 °F 50.0 °F 94% 30.19 in 1.5 mi Calm Calm - N/A Rain Rain
11:54 PM 51.8 °F 51.8 °F 100% 30.19 in 2.0 mi Calm Calm - N/A   Overcast